Location: Palomar Mountain Lodge
(33.3110°N, 116.8495°W)
Time: 10:46:03
(UTC-07:00)

Cosmos 1315 Rocket - Pass Details

Date: 14 June 2018
Orbit: 531 x 569 km, 81.2° (Epoch: 18 June)

Event Time Altitude Azimuth Distance (km) Brightness Sun altitude
Exits shadow 22:32:58 60° 290° (WNW) 629 3.2 -24.9°
Drops below altitude 10° 22:36:50 10° 0° (N) 1,831 6.2 -25.3°
Sets 22:39:03 0° 4° (N) 2,735 7.2 -25.6°
